www.pogodaiklimat.ru

Погода и климат >> Архив погоды >> Россия >> Ненецкий АО >> Канин Нос


ПОГОДА в Канином Носе

  • Прогноз погоды в Канином Носе
  • Монитор погоды в Канином Носе

АРХИВ ПОГОДЫ в Канином Носе

Время (UTC), дата Ветер
(напр.,м/с)
 
Видим.   Явления Облачность Т
(С)
Тd
(С)
f
(%)
Тe
(С)
Тes
(С)
Комфортность P
(гПа)
Po
(гПа)
Тmin
(С)
Tmax
(С)
R
(мм)
R24
(мм)
S
(см)
06 15.04 СЗ 6-10
{12}
20 км дымка 10/10 300 м
[Sc]
+0.1 -0.1 99 -7 -7 1015.1 1008.9 -0.3
09 15.04 З 9-11
{11}
20 км 10/10 300 м
[Sc]
+0.1 -0.3 97 -8 -8 1016.1 1009.9
12 15.04 З 9-12
{12}
4000 м дымка 10/10 300 м
[Sc]
+0.1 0.0 99 -8 -8 1016.0 1009.8
15 15.04 СЗ 7
{13}
2000 м дымка 10/10 300 м
[Sc]
-0.3 -0.4 99 -8 -8 1017.1 1010.9 +0.2
18 15.04 СЗ 11-14
{14}
4000 м дымка 9/9 300 м
[Sc]
-0.7 -0.9 99 -10 -10 1019.5 1013.3
21 15.04 СЗ 8-12
{16}
4000 м дымка 9/9 300 м
[Sc]
-1.3 -1.9 96 -9 -9 1023.5 1017.3
00 16.04 СВ 4
{11}
4000 м дымка 10/10 300 м
[Sc]
-2.0 -2.0 100 -8 -8 1026.8 1020.5
03 16.04 В 3 4000 м дымка 9/9 300 м
[Sc]
-2.9 -3.4 96 -8 -8 1030.4 1024.1 -3.3 123
06 16.04 СВ 2 20 км 9/9 600 м
[Sc]
-2.0 -3.3 91 -6 -6 1033.3 1027.0
09 16.04 ЮВ 7 20 км 9/9 600 м
[Sc]
-3.1 -4.7 89 -11 -11 1035.5 1029.1
12 16.04 Ю 8 20 км 9/9 600 м
[Sc]
-2.9 -4.0 92 -11 -11 1036.0 1029.7
15 16.04 Ю 8 20 км 9/9 600 м
[Sc]
-2.6 -3.6 93 -11 -11 1035.0 1028.7 -1.7
18 16.04 Ю 8-10
{10}
20 км 10/10 600 м
[Sc]
-2.1 -2.6 96 -10 -10 1033.0 1026.7
21 16.04 ЮВ 6
{10}
20 км 10/10 600 м
[Sc]
-1.5 -1.7 99 -9 -9 1032.0 1025.7
00 17.04 Ю 3 4000 м дымка 10/10 300 м
[Sc]
-0.3 -0.3 100 -5 -5 1030.4 1024.1
03 17.04 З 6 н/о н/о -0.5 -0.5 100 -8 -8 1029.1 1022.8 -2.7 123
06 17.04 З 5 20 км 10/8 600 м
[Sc Ac As]
-0.4 -0.4 100 -7 -7 1027.9 1021.6
09 17.04 З 6 20 км 10/8 600 м
[Sc Ac As]
-0.3 -0.3 100 -7 -7 1027.3 1021.0
12 17.04 З 6 20 км 9/8 600 м
[Sc Ac trans]
-0.1 -0.1 100 -7 -7 1026.5 1020.2
15 17.04 З 8 20 км 10/8 600 м
[Sc Ac As]
0.0 0.0 100 -8 -8 1024.6 1018.3 0.0
18 17.04 З 9-12
{12}
4000 м дымка {дождь} 10/10 300 м
[St]
+0.1 +0.1 100 -8 -8 1022.2 1015.9
21 17.04 З 7-10
{13}
500 м туман {дождь} ?/? -0.2 -0.2 100 -8 -8 1021.3 1015.0
00 18.04 СЗ 7-10
{10}
20 км {дождь, туман} 10/10 600 м
[Sc]
-0.5 -0.5 100 -8 -8 1022.4 1016.1
03 18.04 СЗ 4
{13}
н/о н/о -0.9 -1.0 99 -0.9
06 18.04 СЗ 4 4000 м дымка {ливн. осадки} 10/10 300 м
[Sc]
-0.6 -0.6 100 -6 -6 1025.0 1018.7 -0.9
09 18.04 З 6
{13}
4000 м дымка 10/10 300 м
[Cb cap]
-0.3 -0.3 100 -7 -7 1025.7 1019.4 -0.9 1
12 18.04 З 8-10
{10}
4000 м дымка 10/10 300 м
[Sc]
-0.1 -0.3 99 -8 -8 1025.6 1019.3
15 18.04 З 8
{12}
4000 м дымка 10/10 300 м
[Sc]
0.0 -0.2 99 -8 -8 1025.2 1018.9 +0.2
18 18.04 З 7
{10}
4000 м дымка 10/10 300 м
[Sc]
-0.2 -0.2 100 -8 -8 1025.3 1019.0
21 18.04 З 7 4000 м дымка 10/10 300 м
[Sc]
-0.2 -0.2 100 -8 -8 1024.7 1018.4
00 19.04 З 6 4000 м дымка 10/10 300 м
[Sc]
-0.4 -0.4 100 -7 -7 1023.9 1017.6
03 19.04 З 4 20 км 10/10 300 м
[Sc]
-0.7 -0.7 100 -7 -7 1023.3 1017.0 -0.7 121
06 19.04 З 4 20 км 10/10 600 м
[Sc]
-0.5 -0.5 100 -6 -6 1023.4 1017.1 -0.7
09 19.04 З 4 4000 м 10/10 300 м
[Sc]
-0.1 -0.1 100 -6 -6 1023.8 1017.5
12 19.04 СЗ 2 4000 м 10/10 300 м
[Sc]
+0.2 +0.2 100 -4 -4 1024.3 1018.0
15 19.04 СЗ 2 20 км 10/10 600 м
[Sc]
-0.3 -0.3 100 -4 -4 1024.7 1018.4 +0.2
18 19.04 СЗ 1 20 км 10/8 600 м
[Sc Ac As]
-0.3 -0.5 99 -3 -3 1025.1 1018.8
21 19.04 З 4 20 км 9/8 600 м
[Sc Ac As]
-0.5 -0.6 99 -6 -6 1025.3 1019.0
00 20.04 З 4 20 км 10/10 300 м
[Sc]
0.0 -0.9 94 -6 -6 1024.9 1018.6
03 20.04 ЮЗ 4 20 км 10/8 600 м
[Sc Ac As]
-0.2 -1.4 92 -6 -6 1024.0 1017.7 -0.9 121
06 20.04 ЮЗ 6 20 км 9/8 600 м
[Sc Ac trans]
-0.5 -0.6 99 -8 -7 1022.7 1016.4
09 20.04 Ю 7 20 км 9/8 600 м
[Sc Ac As]
-0.2 -0.9 95 -8 -7 1020.9 1014.6
12 20.04 Ю 5 20 км 9/8 600 м
[Sc Ac lent]
+0.3 -0.4 95 -6 -6 1019.4 1013.1
15 20.04 ЮЗ 7 20 км 10/10 300 м
[Sc]
+0.8 +0.2 96 -6 -6 1018.0 1011.7 +0.8
18 20.04 ЮЗ 7-10
{10}
20 км 10/6 600 м
[Sc Ac As]
+0.6 +0.6 100 -7 -7 1017.0 1010.7
21 20.04 З 7
{10}
4000 м дымка 10/8 300 м
[Sc Ac As]
+0.5 +0.4 99 -7 -7 1016.1 1009.8
00 21.04 ЮЗ 4 4000 м дымка 10/10 300 м
[Sc]
+0.6 +0.5 99 -5 -5 1015.2 1008.9
03 21.04 ЮЗ 3 20 км 9/6 300 м
[Sc Ac trans Ci fib]
+0.8 +0.5 98 -4 -4 1013.9 1007.7 +0.3 120
06 21.04 Ю 6 20 км 9/8 600 м
[Sc Ac As]
+1.0 +0.4 96 -6 -5 1012.0 1005.8
09 21.04 ЮВ 9-11
{12}
20 км 9/8 600 м
[Sc Ac As]
+1.5 +0.5 93 -6 -6 1009.8 1003.6
12 21.04 Ю 7
{14}
20 км 10/6 600 м
[Sc Ac As]
+0.9 +0.4 96 -6 -6 1008.3 1002.1
15 21.04 ЮЗ 7-10
{12}
20 км {дождь} 10/8 600 м
[Sc Ac As]
+1.3 +0.7 96 -6 -6 1007.4 1001.2 +2.3 0.0
18 21.04 ЮЗ 7
{10}
20 км {дождь} 6/3 600 м
[Sc Ac lent Ci fib]
+1.1 +0.7 97 -6 -6 1006.7 1000.5
21 21.04 ЮЗ 6
{10}
20 км 8/6 600 м
[Sc Ac lent]
+1.0 +0.5 96 -6 -6 1005.5 999.4
00 22.04 Ю 4 20 км 6/4 600 м
[Sc Ac lent]
+0.5 0.0 96 -5 -5 1004.6 998.5
03 22.04 ЮЗ 7 20 км 5/3 600 м
[Sc Ac trans Ci fib]
+0.9 +0.1 94 -6 -6 1004.2 998.1 +0.2 112

 

Местоположение метеостанции Канин Нос (Ненецкий АО, Россия): широта 68.65 долгота 43.30 высота над уровнем моря 49 м.

В архиве по умолчанию представлена погода в Канином Носе за последнюю неделю. Архивные данные за месяц целиком и за предыдущие месяцы, начиная с января 2011 года, Вы можете получить, выбрав интересующий диапазон дат из раскрывающегося списка и нажав кнопку "Ввод!".


*Определитесь, кто Вы:
робот инопланетянин человек

Внимание! Время в таблицах - всемирное. Для получения местного времени необходимо прибавить поправку, которая равна 3 ч.

Смотрите также архив погоды в соседних городах и на ближайших метеорологических станциях:

Погода в Шойне (Ненецкий АО, Россия) (93 км)
Погода в Святом Носе (Мурманская область, Россия) (155 км)
Погода на Мысе Микулкин (Ненецкий АО, Россия) (168 км)
Погода в Иоканьге (Мурманская область, Россия) (170 км)
Погода на Моржовец Острове (Архангельская область, Россия) (217 км)
Погода в Каневке (Мурманская область, Россия) (227 км)
Погода в Неси (Ненецкий АО, Россия) (235 км)
Погода в Бугрино (Ненецкий АО, Россия) (244 км)
Погода в Индиге (Ненецкий АО, Россия) (247 км)
Погода на Колгуевом Острове (Ненецкий АО, Россия) (249 км)

Пояснения к столбцам:

Ветер - указаны скорость ветра в м/с - средняя за 10 мин, порывы в срок и между сроками (в фигурных скобках) и направление, откуда дует ветер: С - северный, СВ - северо-восточный, В - восточный, ЮВ - юго-восточный, Ю - южный, ЮЗ - юго-западный, З - западный, СЗ - северо-западный.
Видимость - горизонтальная дальность видимости в метрах или километрах. При видимости от 1 до 10 км при отсутствии осадков обычно наблюдается дымка, при ухудшении видимости до 1 км и менее - туман. В сухую погоду видимость может ухудшаться дымом, пылью или мглою.
Явления - указаны атмосферные явления, наблюдавшиеся в срок или в последний час перед сроком; фигурными скобками обозначены явления, наблюдавшиеся между сроками (за 1-3 часа до срока); квадратными скобками обозначены град или гололедные отложения с указанием их диаметра в мм.
Облачность - указаны через наклонную черту общая и нижняя облачность в баллах и высота нижней границы облаков в метрах; квадратными скобками обозначены формы облаков: Ci - перистые, Cs - перисто-слоистые, Cc - перисто-кучевые, Ac - высококучевые, As - высокослоистые, Sc - слоисто-кучевые, Ns - слоисто-дождевые, Cu - кучевые, Cb - кучево-дождевые. Подробнее классификацию облаков см. в Атласе облаков (PDF).
T - Температура воздуха - температура, измеренная на высоте 2 м над землей.
Td - Температура точки росы - температура, при понижении до которой содержащийся в воздухе водяной пар достигнет насыщения.
f - Относительная влажность воздуха - влажноcть воздуха, измеренная на высоте 2 м над землей.
Te - Эффективная температура - температура, которую ощущает одетый по сезону человек в тени. Характеристика душности погоды. При расчете учитывается влияние влажности воздуха и скорости ветра на теплоощущения человека.
Tes - Эффективная температура на солнце - температура, которую ощущает человек, с поправкой на солнечный нагрев. Характеристика знойности погоды. Зависит от высоты солнца над горизонтом, облачности и скорости ветра. Ночью, в пасмурную погоду, а также при ветре 12 м/с и более поправка равна нулю.
P - Атмосферное давление - приведенное к уровню моря атмосферное давление.
Po - Атмосферное давление - измеренное на уровне метеостанции атмосферное давление.
Tmin - Минимальная температура - минимум температуры воздуха на высоте 2 м над землей.
Tmax - Максимальная температура - максимум температуры воздуха на высоте 2 м над землей.
R - Количество осадков - Количество выпавших осадков за период времени, мм. При наведении курсора мыши на число - период времени, за который выпало указанное количество осадков.
R24 - Количество осадков - Количество выпавших осадков за 24 часа, мм.
S - Снежный покров - Высота снежного покрова, см. При наведении курсора мыши на число - состояние снежного покрова и степень покрытия местности в баллах.